Theta_e
252 251 250 249 251 253 254 255 257 257 257 254 256 254 250 255 255 257 254 250 254 255 257 263 264 263 263 264 264 265 262 262 262 261 262 263 264 263 262 263 263 263 263 262 262 261 261 260 259 260 260 259 260 259 259 259 259 259 259 258 258 259 259 258 259 259 259 259 259 259 259 258 258 258 258 258 259 259 259 259 260 260 260 261 260 260 261
250 251 250 250 254 254 254 250 253 257 256 256 257 254 249 254 254 251 251 249 255 259 259 259 262 264 265 264 263 262 262 262 263 261 262 262 263 263 263 263 263 263 263 262 262 261 261 260 259 259 259 259 259 258 259 259 259 259 259 258 258 258 258 258 258 258 259 259 258 258 258 258 257 258 258 258 258 258 258 259 259 259 260 260 260 260 260
249 249 250 253 251 251 251 254 253 255 253 255 257 256 254 252 255 255 252 252 256 261 263 263 263 261 262 262 261 263 263 263 263 263 262 263 263 263 264 263 263 263 262 262 262 261 261 260 260 259 258 258 258 258 259 259 258 259 258 258 258 258 257 258 258 258 258 258 258 257 258 257 257 257 257 257 257 257 258 258 258 258 259 258 259 259 259
248 249 248 252 249 251 250 251 254 254 254 253 255 256 257 256 257 253 256 254 258 260 261 262 261 261 262 262 263 263 263 262 262 263 263 263 263 264 264 264 263 263 262 262 261 261 261 261 260 259 259 258 259 258 259 258 259 259 258 258 257 257 258 258 258 258 257 257 257 257 257 256 257 257 257 257 257 257 257 257 257 258 257 258 258 258 258
245 249 246 249 250 251 253 256 257 258 257 257 255 257 258 260 259 255 254 257 261 260 261 260 260 259 261 262 262 263 263 263 263 263 263 264 264 264 264 264 264 263 263 263 262 262 261 260 259 259 259 259 258 259 258 258 258 258 258 257 257 257 257 257 257 257 257 257 256 256 256 256 256 256 256 256 256 256 256 257 257 256 257 257 257 258 257
246 249 244 246 251 248 252 254 256 259 258 258 258 257 258 259 261 260 261 262 260 260 261 261 260 260 261 263 264 265 265 265 264 264 263 264 264 264 264 264 264 264 263 263 263 262 261 260 260 259 259 258 259 259 258 258 258 257 257 257 257 256 257 257 257 257 256 256 256 255 256 255 256 255 255 255 256 256 256 256 256 256 256 256 257 257 257
249 245 249 253 248 254 256 258 258 259 258 260 260 259 257 260 261 262 260 260 260 262 263 263 263 263 262 260 261 261 263 264 264 264 264 263 263 263 263 263 263 264 264 263 262 261 260 259 259 259 259 259 258 258 258 257 257 256 256 256 256 256 256 256 256 256 256 255 255 255 255 255 255 255 255 255 255 255 256 255 255 255 255 255 256 256 256
245 247 244 246 250 250 254 257 258 259 259 259 258 258 260 260 260 262 261 263 261 261 262 261 261 261 261 261 261 262 262 263 264 263 264 264 264 263 264 264 264 264 263 263 262 261 260 259 259 259 258 258 257 257 257 256 256 256 255 255 255 255 255 255 255 255 255 254 254 254 254 254 254 254 254 255 254 255 255 255 255 255 255 256 255 255 256
250 244 243 255 252 259 254 255 257 259 257 257 257 254 260 261 262 261 262 263 262 261 260 260 260 260 260 261 263 262 262 262 262 264 264 263 263 264 264 264 264 264 263 262 261 260 259 259 258 258 258 258 256 255 254 255 255 254 254 254 254 254 254 254 254 254 254 254 253 253 253 253 253 253 254 254 254 254 254 254 254 254 254 255 255 255 255
242 246 245 248 250 248 251 255 258 261 260 262 259 259 259 259 261 263 263 262 262 261 259 259 260 258 261 259 261 262 261 260 261 261 260 260 260 261 261 261 260 260 260 260 260 259 258 258 258 257 257 256 255 254 254 253 253 253 253 253 253 253 253 254 254 254 254 253 253 253 253 252 252 253 253 253 253 254 253 253 253 254 254 254 254 255 255
248 247 247 243 247 252 253 259 259 260 260 260 258 256 256 261 261 263 263 262 262 261 260 259 258 256 256 257 260 262 261 260 261 261 261 259 259 258 259 259 258 257 258 258 258 257 256 255 255 255 255 254 253 252 253 252 252 252 252 252 253 252 253 254 253 253 253 253 253 252 252 252 252 252 252 252 253 253 253 253 253 253 253 253 254 254 255
246 242 245 249 246 250 258 256 258 260 260 260 261 251 249 256 259 261 262 263 262 260 260 259 258 261 256 259 262 260 263 262 261 261 261 260 259 257 257 257 257 257 257 256 253 254 254 254 254 253 252 252 251 251 251 252 251 251 252 252 253 253 253 253 253 253 253 252 252 252 252 252 252 252 252 252 252 252 252 252 252 252 253 253 253 253 255
251 256 244 243 251 255 257 257 260 260 259 261 252 252 256 258 260 261 263 263 262 260 258 259 259 261 263 262 261 260 258 259 259 258 259 258 257 257 255 256 260 254 254 255 255 254 254 252 251 251 251 250 250 250 249 250 250 251 252 252 252 252 252 252 252 252 252 252 252 252 252 252 252 251 251 251 251 251 251 251 251 252 252 252 253 253 254
248 247 249 253 252 256 257 258 260 260 259 251 251 259 254 258 259 262 262 262 261 261 260 260 263 263 262 261 258 259 259 260 258 258 258 257 255 253 255 256 256 251 252 251 251 250 250 250 251 250 251 250 250 248 248 249 251 250 250 250 251 251 251 251 251 251 251 252 252 252 251 251 250 250 251 251 251 250 250 250 251 251 251 252 252 252 253
242 240 246 246 250 255 260 260 259 258 257 258 259 254 256 260 263 262 262 262 262 261 259 260 261 261 259 259 260 259 257 256 257 255 254 255 255 254 252 252 254 254 253 253 253 252 251 249 250 250 250 250 249 248 248 250 250 249 249 249 249 249 249 250 250 250 251 250 250 251 250 250 250 249 249 249 249 249 250 250 250 250 250 251 251 251 252
253 246 248 252 259 257 261 265 261 260 263 259 256 262 260 260 259 263 261 261 262 262 262 261 259 258 258 257 255 255 255 256 256 254 252 252 252 252 252 253 254 254 254 254 254 252 251 250 250 251 251 251 251 250 249 250 248 248 247 248 248 248 248 248 248 248 248 248 249 248 248 248 248 247 248 248 248 248 249 249 249 249 249 250 250 250 250
254 254 257 260 253 257 263 264 262 259 262 255 257 260 263 262 261 261 262 263 262 262 262 261 260 258 258 259 259 258 258 257 256 255 255 255 254 255 255 254 253 254 255 255 254 252 251 250 250 250 251 251 251 250 251 250 250 248 247 246 246 246 247 247 247 246 246 246 247 246 246 246 246 246 246 247 247 248 248 248 248 248 248 249 249 249 250
253 257 260 257 253 253 258 263 259 260 259 256 255 258 259 262 263 261 263 261 262 261 260 260 257 259 259 258 257 256 256 256 255 254 253 252 251 251 251 252 253 254 253 253 251 252 252 250 250 250 250 250 249 251 249 250 249 249 248 247 246 247 246 246 246 245 244 244 245 245 245 246 245 246 245 245 245 246 247 247 247 247 247 248 248 249 249
256 257 254 258 262 258 260 262 264 258 257 259 256 256 258 257 258 259 259 260 260 260 258 260 261 260 258 258 258 255 254 254 255 254 254 254 253 253 252 253 253 252 252 252 252 252 252 251 250 250 247 249 251 251 250 248 248 247 244 247 246 246 246 245 245 244 242 244 244 244 243 245 245 245 246 246 246 246 246 245 245 246 247 247 247 248 248
257 260 256 254 250 256 258 260 262 264 264 262 257 260 258 257 253 255 257 257 257 256 257 259 259 261 258 257 258 257 257 256 256 254 254 254 253 252 253 251 251 251 252 252 253 253 253 253 251 250 249 249 250 250 249 247 243 242 243 243 245 247 247 247 245 245 244 247 247 245 245 244 244 245 245 245 245 245 246 246 246 246 247 247 248 248 249
258 259 262 260 257 259 260 259 259 262 264 262 260 258 257 254 256 256 253 253 257 256 260 257 258 258 258 257 258 257 257 255 255 255 255 254 254 253 252 251 250 252 253 252 253 253 254 253 251 250 249 248 248 247 247 243 243 242 245 244 245 244 244 243 244 244 244 243 244 244 244 245 245 246 245 245 245 246 248 248 247 247 247 248 250 252 253
256 258 260 259 256 257 257 259 262 263 262 262 262 256 254 255 257 257 257 257 253 253 254 255 256 258 260 257 255 256 257 257 257 256 255 253 251 251 250 249 249 250 250 252 253 253 253 253 251 250 248 249 248 244 242 241 242 244 244 244 241 244 243 242 243 243 242 242 241 243 243 243 244 245 249 250 250 249 249 252 254 256 258 255 256 257 257
259 262 260 261 263 261 262 261 258 260 260 259 260 260 260 260 258 258 258 258 256 256 256 253 255 257 258 259 255 255 255 255 255 255 253 253 251 251 249 248 247 248 249 251 251 251 253 252 250 250 250 249 248 246 243 243 242 244 243 243 243 244 243 242 244 243 242 242 241 241 241 242 243 244 245 247 251 252 253 253 254 255 259 262 263 263 260
264 260 257 257 259 262 259 258 255 253 254 258 259 260 260 260 260 257 257 259 260 259 258 255 254 257 257 256 254 256 256 254 252 252 251 251 252 251 248 250 250 249 249 249 250 251 252 251 250 250 249 249 248 248 244 242 242 244 243 244 244 245 244 242 244 244 241 242 242 242 242 241 242 242 242 243 245 250 252 252 253 255 259 260 261 261 262
264 258 256 258 258 257 256 254 253 252 251 256 257 258 258 257 256 255 256 257 257 258 259 258 255 254 255 256 254 256 256 254 253 253 252 251 251 250 249 248 249 250 251 251 251 251 251 250 249 249 249 250 249 244 244 243 242 243 242 243 244 244 244 244 244 244 243 242 242 242 241 242 241 240 241 242 243 245 248 251 252 253 254 257 259 260 260
261 254 254 254 255 255 253 256 257 256 252 252 254 253 254 257 254 253 255 256 256 254 255 256 255 253 253 254 254 254 252 253 252 251 249 249 249 248 249 249 250 250 250 250 251 251 250 250 249 249 249 250 249 248 244 243 243 243 243 243 244 244 243 243 243 242 242 241 242 242 241 241 241 241 242 242 242 243 244 245 248 250 252 253 254 254 255
260 256 257 260 261 262 257 260 261 255 254 253 255 255 251 249 254 253 251 250 251 250 253 254 253 251 249 251 252 251 253 252 250 250 250 250 250 251 252 251 249 249 249 249 249 250 250 249 249 249 249 250 248 246 244 243 242 242 242 243 242 245 247 246 242 243 242 241 242 241 240 241 241 242 243 242 243 244 244 244 245 245 246 248 250 252 251
254 254 259 261 260 258 255 256 255 254 252 251 252 253 252 249 251 252 252 255 253 250 249 248 250 248 252 251 250 252 249 250 252 252 250 251 252 251 249 248 248 248 248 249 250 250 249 249 249 248 249 249 248 244 244 243 242 243 243 242 242 242 244 246 246 244 242 242 241 242 242 242 241 242 243 243 243 244 245 245 245 245 245 246 247 249 251
256 255 256 259 261 253 252 251 251 253 253 250 249 248 250 252 254 252 254 256 255 253 255 253 248 250 253 254 251 252 253 253 252 252 253 253 251 250 248 247 247 246 247 248 248 248 248 248 248 248 249 249 246 244 243 242 243 243 243 243 243 242 243 242 242 243 242 241 241 241 244 244 243 242 243 243 244 243 244 244 244 245 245 246 246 247 249
261 256 255 256 256 252 255 258 259 257 254 251 251 250 249 251 253 255 255 256 252 254 256 253 250 251 251 252 252 253 253 254 254 255 254 253 251 249 248 246 245 245 244 246 247 248 247 248 247 247 249 248 248 245 243 242 244 243 243 243 243 243 242 241 239 241 240 240 241 245 245 243 243 241 244 243 243 243 245 244 245 245 245 245 247 245 245
247 250 252 252 252 252 255 257 257 255 253 250 250 250 249 248 251 254 256 256 252 254 254 253 253 254 250 252 253 253 253 254 253 253 252 251 249 249 248 247 248 249 249 250 249 247 247 248 248 248 249 247 247 244 243 243 244 242 241 243 241 245 246 246 245 242 240 241 242 242 242 243 242 243 244 244 243 243 243 242 243 244 244 244 244 245 246
253 251 250 252 251 251 253 254 254 255 255 251 249 252 254 253 253 255 256 255 256 255 254 252 252 253 254 253 251 250 251 251 251 250 250 250 249 248 248 248 250 251 252 250 248 248 248 248 248 249 248 247 247 244 243 243 242 243 242 243 243 240 245 247 246 247 245 244 244 244 244 242 243 241 244 244 243 244 243 242 243 244 244 244 245 246 246
256 255 258 255 251 250 251 253 253 255 255 253 254 256 255 255 255 256 256 256 254 253 253 254 255 255 253 249 249 248 248 246 246 247 248 249 249 248 247 248 248 249 250 250 248 247 248 248 249 247 247 247 247 246 245 244 242 243 243 242 243 241 244 245 246 245 245 245 244 244 243 243 243 242 244 244 244 244 242 244 244 244 245 245 245 246 246
261 262 262 256 258 260 258 259 255 255 256 254 254 254 254 254 255 255 255 254 253 253 254 255 255 252 249 249 249 247 245 244 248 249 249 249 249 249 247 247 247 246 247 247 247 246 247 248 248 248 247 247 246 246 245 245 243 244 243 242 242 241 242 242 245 244 242 244 244 245 245 244 243 243 244 244 243 243 244 244 245 245 245 245 246 246 248
260 261 259 256 253 253 255 257 255 255 255 255 254 253 253 254 254 254 254 254 253 255 254 253 252 250 248 247 247 246 246 248 251 252 252 251 249 248 244 244 243 243 244 245 245 246 247 247 247 246 246 246 245 245 245 245 244 244 241 242 243 243 242 242 243 243 244 244 242 242 242 242 243 245 245 244 243 244 244 245 245 245 245 245 245 246 246
256 257 258 258 258 257 256 256 257 256 256 257 258 258 256 255 253 253 253 253 254 254 254 254 251 247 247 248 248 248 248 248 249 251 251 251 248 243 244 242 244 243 244 245 246 246 247 246 247 247 247 246 246 245 245 244 244 243 243 242 243 242 243 243 243 242 243 242 242 243 242 244 245 245 245 244 243 243 244 244 244 244 244 245 245 245 245
255 257 257 257 257 254 255 256 257 256 255 256 257 256 256 255 255 255 254 253 252 252 252 250 249 249 250 250 250 251 250 250 250 250 250 247 244 242 244 242 242 243 244 244 248 247 247 247 247 247 247 246 246 246 245 246 244 243 242 243 242 242 242 242 242 242 242 242 243 243 244 245 242 244 244 243 244 244 244 243 244 244 244 245 245 245 245
254 255 256 256 256 254 255 255 252 252 252 250 253 254 255 256 255 253 253 253 252 251 249 249 251 251 250 248 248 249 249 249 249 249 247 245 243 244 241 243 245 244 243 248 244 244 245 246 247 247 246 245 246 246 246 247 246 244 242 242 242 242 242 242 243 243 243 241 242 242 242 243 243 243 243 242 243 243 244 244 244 244 244 245 245 245 245
252 251 252 254 253 253 254 253 250 249 252 254 255 255 254 253 252 250 252 253 253 249 248 249 248 248 250 249 250 250 249 249 248 247 246 245 242 244 247 248 248 248 249 244 244 245 246 246 245 245 246 246 245 245 245 247 247 244 242 242 241 242 242 243 243 243 242 243 241 242 240 242 243 243 243 243 243 243 244 245 245 245 245 244 244 244 244
254 254 254 253 253 254 253 253 253 253 252 252 252 254 255 251 252 251 252 252 252 250 250 248 247 249 249 249 249 250 251 250 248 246 245 244 241 242 244 246 247 247 248 247 245 246 246 246 244 244 246 245 245 245 245 246 247 245 242 242 242 242 242 243 242 242 243 242 243 245 244 244 243 244 244 244 244 244 244 244 244 244 244 244 244 243 244
253 253 252 252 253 251 252 252 253 253 251 251 251 252 251 251 250 249 251 252 252 249 249 249 249 249 250 250 251 251 250 246 246 246 244 241 241 243 244 248 248 249 248 247 248 248 247 247 246 245 245 245 245 245 245 246 246 244 243 242 242 242 242 243 243 243 243 243 244 243 244 244 243 244 244 244 244 244 244 244 244 244 243 243 243 243 243
252 250 249 250 251 252 252 252 251 251 252 251 251 251 250 249 250 251 252 251 249 248 248 248 248 250 251 250 249 249 248 247 243 244 244 246 247 246 245 248 248 245 246 247 247 247 247 247 247 247 247 246 246 246 246 246 246 245 244 244 244 243 243 244 244 244 243 243 243 243 243 243 243 243 243 243 243 243 243 243 243 243 243 243 243 243 243
250 249 250 251 251 250 250 250 250 251 251 251 250 250 249 248 249 249 249 249 249 249 248 248 248 247 247 248 247 247 248 245 245 244 243 245 246 247 250 249 243 244 247 246 246 245 246 247 247 247 247 247 246 246 247 246 245 245 245 245 245 245 244 244 244 244 244 242 243 243 243 243 243 243 243 243 243 243 243 243 243 243 243 243 242 242 242
249 249 249 250 251 251 248 249 249 247 248 251 249 247 247 247 247 248 248 248 248 248 248 248 248 248 247 247 247 247 248 248 247 245 244 245 246 246 246 247 248 246 246 246 246 246 246 246 246 246 246 246 246 246 246 246 245 245 245 245 245 245 245 244 244 244 244 244 244 244 243 243 243 243 242 243 243 242 242 242 242 242 242 242 242 242 242
249 250 250 250 249 247 249 250 250 252 252 249 247 246 247 248 248 247 247 247 248 248 248 248 248 248 248 247 247 248 249 249 248 246 245 246 247 250 248 247 247 247 248 247 247 247 247 246 246 246 246 246 246 246 246 245 245 245 244 244 244 244 244 244 245 244 244 244 243 244 243 243 243 243 243 243 243 243 243 242 242 242 242 242 242 242 242
250 250 248 248 248 250 251 250 249 246 245 247 248 249 249 248 248 247 246 247 247 248 249 248 248 249 249 248 248 248 247 247 247 247 249 251 251 249 244 246 246 246 247 247 247 248 248 247 246 246 246 246 246 246 246 245 245 245 244 244 244 244 244 244 244 244 244 244 244 243 243 243 242 242 242 241 242 242 242 243 243 242 242 242 241 241 241
250 250 248 248 250 249 247 245 244 245 245 246 250 253 251 246 244 244 245 245 246 247 247 247 248 248 248 248 248 247 247 247 248 248 247 248 249 249 246 246 246 246 246 246 246 247 247 248 247 247 246 246 246 246 245 245 244 245 244 244 244 244 244 244 244 244 244 244 243 243 243 243 242 242 242 242 242 242 241 241 241 242 242 241 241 242 242
250 250 252 249 249 246 245 244 245 246 247 250 251 252 251 247 245 244 245 244 245 244 244 245 245 245 245 246 246 247 248 246 246 248 248 247 248 248 247 247 247 246 246 246 246 246 246 246 246 246 246 246 246 246 246 245 245 245 245 244 244 244 244 244 244 244 243 243 242 239 240 241 241 240 241 241 241 241 241 240 241 241 241 239 241 240 240
248 250 248 245 244 244 245 246 246 247 249 250 247 249 248 246 244 245 245 244 242 243 244 243 244 244 244 245 245 246 246 247 248 249 244 243 244 244 245 246 246 246 246 246 245 245 246 246 246 246 246 246 246 246 246 245 245 245 245 245 245 245 245 245 244 243 242 242 241 242 241 241 241 239 240 240 240 239 240 240 240 239 239 240 240 240 240
248 246 247 249 249 249 248 247 248 250 251 247 249 249 245 244 247 249 246 245 245 245 245 245 245 244 244 244 244 244 245 245 246 248 248 244 242 242 243 243 244 245 246 246 243 246 245 245 245 245 245 245 245 245 245 245 245 245 245 245 245 245 245 244 244 243 242 241 241 241 241 241 241 241 241 239 240 240 240 240 239 241 242 242 241 240 239
246 248 251 251 250 250 246 249 251 250 248 249 246 246 244 245 247 248 246 246 244 244 246 247 247 245 244 244 243 243 243 243 244 245 245 246 246 246 244 243 243 244 244 244 244 245 243 242 244 245 245 245 245 245 245 245 245 245 245 245 244 244 243 243 243 242 242 242 241 241 241 240 240 240 239 239 240 240 240 239 240 239 239 239 240 240 239
250 249 249 247 246 246 245 246 246 246 245 246 245 244 244 244 245 246 245 245 244 245 245 244 247 245 242 241 243 242 241 242 242 243 244 245 245 245 245 245 244 243 243 242 243 242 242 243 244 244 244 245 245 245 245 245 245 245 244 243 244 244 243 243 242 241 241 242 241 241 241 240 239 240 240 240 239 240 240 239 239 239 239 239 239 238 238
Wind_Speed
1 1 2 2 0 0 1 2 2 8 7 5 9 7 3 7 6 10 1 4 5 4 7 10 11 10 10 10 10 8 5 1 1 2 4 6 7 6 7 9 8 8 8 7 7 7 6 5 5 4 2 2 1 1 2 1 2 3 2 4 4 4 4 5 5 5 6 5 5 6 7 7 8 8 8 8 8 8 8 8 8 9 9 10 11 11 10
1 2 3 3 0 1 0 2 3 4 6 10 7 5 3 7 6 1 3 5 10 8 4 7 9 8 7 5 1 0 1 5 4 3 5 7 7 7 9 11 10 8 7 6 7 7 7 7 7 4 3 3 2 2 2 0 2 3 2 4 3 4 4 5 5 6 6 6 6 6 7 7 8 8 8 8 8 8 8 8 9 9 9 9 10 10 11
3 4 3 1 4 1 2 4 4 5 3 4 6 2 2 1 7 6 4 4 13 9 10 12 7 3 2 1 3 7 7 5 5 5 7 7 8 8 9 8 7 6 6 6 6 8 8 8 7 5 4 3 2 1 2 0 1 2 2 3 3 4 5 5 5 6 5 5 6 6 6 7 7 8 8 8 8 8 8 8 9 9 9 10 9 10 10
2 1 3 1 2 1 2 7 7 7 5 6 8 8 7 7 9 2 3 3 12 3 6 2 1 4 5 9 8 7 7 6 5 7 7 7 8 8 9 8 5 6 7 8 9 10 9 8 7 6 4 3 3 3 2 1 1 1 2 3 4 4 4 5 5 5 5 6 6 6 7 7 7 8 8 8 8 8 8 9 8 8 9 9 9 9 9
2 1 1 3 3 3 7 13 17 19 13 6 1 3 3 12 7 6 5 12 3 3 5 6 4 4 6 7 6 6 6 5 7 8 9 9 8 8 8 7 7 8 9 9 9 8 7 8 7 7 5 4 4 3 2 2 0 2 2 3 4 4 4 5 5 5 6 6 6 6 7 7 7 7 8 8 8 8 9 9 9 9 9 9 9 9 9
1 2 3 1 0 2 8 1 1 8 15 18 14 9 14 11 11 8 6 5 1 3 6 7 7 7 7 9 10 7 7 7 7 8 7 8 8 6 5 6 6 6 5 6 7 8 7 6 7 6 6 5 3 2 2 1 1 2 2 3 3 4 4 4 4 5 5 6 6 7 7 7 7 7 8 8 8 8 8 8 8 9 9 9 9 9 9
1 1 1 1 3 11 2 2 2 2 1 3 17 7 1 9 12 9 7 4 4 9 9 9 8 9 6 3 4 4 6 6 6 7 7 8 8 8 7 5 6 6 7 6 5 6 7 7 6 6 5 5 4 3 3 2 2 1 2 3 3 4 4 4 4 5 5 5 6 7 7 7 7 7 8 8 8 7 7 8 8 9 9 9 9 9 10
2 2 1 1 6 3 1 3 1 1 2 1 2 7 14 12 14 17 14 12 8 6 6 4 3 3 4 3 5 8 8 7 8 6 7 8 6 6 7 7 7 6 7 9 9 8 6 7 6 5 5 5 4 4 2 2 2 2 2 2 3 3 4 4 4 4 5 5 6 6 7 7 7 8 8 8 8 8 7 8 7 8 8 8 9 10 10
3 3 3 10 5 10 3 1 3 7 5 6 6 3 7 12 16 14 14 14 7 6 5 4 1 1 1 4 7 7 10 8 7 9 8 6 7 6 5 5 6 4 4 5 5 6 7 8 8 5 5 4 4 3 2 2 2 2 3 3 4 3 4 4 4 4 5 5 6 6 6 7 7 7 8 8 8 7 8 8 8 8 8 8 9 9 11
4 3 2 4 3 3 7 5 2 3 2 5 3 2 8 3 10 16 16 14 10 7 3 4 4 1 0 5 4 1 4 5 7 5 4 2 3 3 3 1 0 1 2 4 5 7 8 8 6 5 6 5 4 3 3 2 3 4 3 4 3 4 4 4 3 3 4 5 6 6 6 6 7 7 7 6 7 7 8 9 8 8 9 9 9 9 10
3 2 3 4 3 7 5 3 2 3 2 3 1 3 8 5 8 13 14 12 7 8 8 6 5 3 2 7 6 5 3 4 6 6 6 5 4 4 4 4 4 3 3 4 5 5 6 7 5 6 6 5 4 4 3 3 3 4 5 5 4 4 4 3 3 3 4 4 5 6 6 7 6 7 8 7 7 7 7 7 8 8 8 8 9 9 9
1 4 3 6 5 3 1 4 2 2 3 2 2 3 5 2 2 7 9 10 9 6 6 8 7 7 5 6 6 3 8 5 6 7 7 6 5 4 2 1 2 4 4 5 4 6 7 7 5 5 5 4 4 4 4 3 4 6 6 5 4 3 3 3 3 3 4 4 5 5 7 6 7 7 7 7 7 7 7 7 7 8 8 8 9 9 9
5 6 4 4 8 5 4 5 5 2 2 2 2 7 4 2 5 6 8 9 6 8 8 8 7 9 7 3 2 2 1 2 1 3 1 2 2 4 4 4 4 5 5 7 9 9 7 6 6 5 5 5 5 4 3 3 6 7 5 3 3 3 3 3 3 4 4 4 5 5 5 6 7 7 6 7 7 7 8 7 8 8 9 8 8 9 8
5 4 3 8 7 9 8 0 4 2 3 2 8 8 1 7 5 7 7 8 6 9 11 9 7 5 5 1 3 3 3 5 2 2 2 1 0 0 1 3 4 4 4 4 3 3 3 6 6 6 5 5 5 4 3 6 8 3 3 4 4 3 4 4 4 4 4 4 4 4 4 4 5 6 6 6 6 7 6 7 9 9 9 8 7 8 8
4 2 1 4 4 2 6 12 3 0 4 8 6 2 1 1 5 10 6 6 7 7 7 8 8 6 2 4 5 4 3 4 5 5 4 5 7 6 3 4 4 5 5 7 8 7 5 6 6 6 7 6 5 4 6 10 4 3 4 3 3 3 3 4 4 5 5 5 4 4 4 4 5 6 6 5 6 5 6 7 7 8 8 8 8 8 8
7 5 5 8 10 4 10 16 9 9 11 2 5 7 5 2 4 7 6 5 7 9 7 8 8 7 6 5 4 3 4 5 5 3 4 3 4 3 5 4 5 6 7 6 6 5 5 6 6 7 8 7 6 6 11 6 3 3 3 4 3 3 3 4 4 4 4 3 4 3 3 4 4 5 6 5 6 5 5 5 6 7 7 6 6 7 7
7 9 10 7 2 6 13 7 1 1 3 1 4 1 4 7 6 4 4 8 6 8 9 6 7 5 7 8 6 6 7 7 7 7 8 8 8 8 7 8 5 6 9 9 7 5 6 7 7 7 7 8 6 8 5 3 4 4 4 4 4 4 4 4 4 4 4 3 4 4 3 3 4 4 5 4 6 5 4 5 6 6 7 5 6 7 7
5 7 11 2 0 2 9 11 4 1 1 0 2 3 2 4 4 9 8 6 6 7 6 6 5 6 6 6 6 6 6 5 6 4 3 4 5 5 3 4 6 8 6 5 5 7 6 7 8 8 8 8 9 9 3 4 4 5 4 4 4 5 4 4 5 4 4 4 4 4 4 4 4 4 4 5 5 6 5 5 5 6 7 6 6 6 7
1 7 2 7 11 5 7 13 11 4 2 3 4 4 4 3 2 4 4 4 6 7 7 8 8 8 6 7 7 5 5 5 6 6 7 6 6 7 8 9 5 5 6 7 9 9 9 7 9 8 7 9 10 6 4 4 4 4 4 5 5 4 5 5 4 4 4 5 4 4 3 3 3 4 4 4 5 6 5 6 5 6 6 6 6 6 7
5 9 2 3 2 4 5 7 9 12 12 9 6 5 2 1 2 3 4 1 2 3 4 8 8 9 6 6 8 6 6 7 6 6 6 7 5 7 7 4 5 5 6 9 10 9 11 9 8 8 8 10 9 8 5 4 4 4 4 5 5 6 6 5 4 3 4 5 5 4 4 3 4 4 4 4 5 6 6 5 5 7 6 6 7 7 9
8 9 14 10 5 8 10 9 10 11 9 6 6 6 6 4 4 5 4 4 5 6 9 6 6 7 7 8 8 7 6 5 5 7 8 7 7 5 5 6 6 9 8 9 10 9 11 7 6 7 8 8 7 7 7 5 5 5 6 6 5 5 5 3 5 3 4 4 4 4 5 4 4 5 5 5 6 7 7 5 6 7 6 8 9 9 8
7 11 7 6 1 6 4 6 13 13 12 9 8 3 5 6 8 8 7 7 5 5 5 5 6 9 9 6 6 8 8 7 7 6 6 6 6 6 5 4 6 7 8 9 9 10 10 6 6 7 7 7 7 6 5 5 5 6 6 5 4 6 5 5 5 4 4 4 4 4 4 5 5 6 7 10 9 7 8 10 13 16 14 11 10 8 6
9 4 7 8 5 3 5 3 3 7 5 5 8 10 11 10 10 8 7 9 6 7 9 6 7 9 9 9 5 7 7 9 8 7 6 6 6 7 4 5 5 7 8 8 7 8 9 5 6 7 6 6 5 6 6 6 7 7 5 5 5 6 4 5 6 5 4 5 5 5 5 4 4 6 8 6 9 14 14 14 14 15 17 19 19 17 12
6 2 2 5 4 5 1 1 2 3 3 6 8 9 8 9 8 6 8 9 10 9 7 6 8 10 8 7 5 9 8 6 5 6 6 6 6 5 4 7 7 7 8 8 10 12 8 6 7 6 7 6 6 6 6 6 7 7 7 6 7 6 6 5 6 5 4 4 4 5 5 4 5 4 5 8 9 6 8 11 12 14 16 16 16 15 17
7 1 2 6 5 3 1 2 3 3 2 5 6 8 8 7 6 5 8 8 7 8 8 8 7 8 9 9 6 9 9 7 6 7 6 5 6 6 6 5 8 9 10 9 8 7 6 6 6 7 7 8 6 5 6 6 7 7 7 7 7 6 6 5 5 6 4 5 4 5 5 5 4 3 4 4 7 10 7 7 11 13 13 13 13 15 17
1 1 2 2 0 3 2 2 6 6 6 5 4 3 3 5 3 4 8 8 7 6 7 7 6 6 7 9 8 8 6 9 7 3 4 5 5 4 7 11 11 7 6 6 7 7 6 7 8 7 8 8 6 7 6 7 7 8 8 8 8 7 6 5 6 5 6 5 5 5 5 5 5 5 5 5 6 5 8 11 9 6 6 8 11 13 14
1 2 2 5 9 10 4 7 8 0 1 5 7 5 1 0 1 3 2 3 5 4 6 7 5 3 4 6 6 5 8 6 2 5 6 6 8 11 10 6 5 6 6 6 7 7 8 7 7 8 10 8 6 6 6 7 7 7 7 7 6 7 8 6 5 6 5 6 6 5 4 5 5 5 6 5 4 5 5 6 7 9 10 9 8 8 10
4 3 6 8 9 4 2 4 4 1 1 3 5 5 3 0 1 2 5 6 5 5 5 5 5 4 6 6 5 7 4 5 9 7 7 11 11 7 5 5 5 5 6 7 8 6 6 6 7 8 10 7 5 6 6 7 7 8 7 7 7 6 5 6 7 6 6 6 6 6 6 6 5 5 6 5 6 6 5 5 6 8 8 8 7 9 15
7 7 7 9 6 1 1 0 1 1 2 0 0 0 0 2 5 5 8 8 6 2 6 6 5 6 8 6 6 8 8 8 9 11 12 10 5 6 5 5 5 5 5 6 6 6 6 7 7 9 11 6 6 7 7 7 7 8 7 7 6 6 6 5 6 5 5 5 5 5 5 6 6 5 5 6 6 5 6 6 6 6 7 8 8 9 8
9 5 5 8 6 2 3 7 8 6 5 3 2 4 2 3 6 9 9 8 5 8 10 4 3 7 8 8 8 9 11 12 12 9 7 6 5 4 5 4 2 1 2 6 9 8 8 8 8 11 11 5 7 6 7 7 8 7 7 7 8 7 7 6 4 5 5 5 6 6 6 4 5 5 6 5 5 5 6 6 6 6 7 8 6 6 8
1 1 2 2 3 2 7 10 7 6 5 3 4 4 4 3 6 9 11 9 5 8 8 7 8 8 7 11 10 8 8 8 7 7 6 5 4 5 5 7 7 9 10 11 9 8 9 9 9 11 9 4 6 7 7 8 7 6 5 6 6 8 9 9 6 6 5 5 5 5 5 5 5 5 7 6 5 5 5 5 6 6 7 6 7 7 8
2 2 3 1 1 4 6 6 7 9 7 4 2 7 11 9 11 13 12 8 10 9 7 6 8 12 12 8 6 6 7 7 7 7 7 6 6 6 7 9 11 10 8 6 6 7 8 8 11 12 4 5 6 6 7 7 5 7 7 6 7 5 7 9 7 7 7 7 6 6 7 5 6 4 5 6 5 6 5 4 6 6 6 7 8 8 7
2 7 8 5 3 2 7 7 6 10 7 7 11 10 6 6 8 9 10 8 6 5 7 10 11 10 7 5 5 6 7 5 5 6 8 10 9 8 8 7 9 10 9 8 6 6 8 10 11 4 5 6 7 7 8 8 7 7 7 6 6 6 5 6 7 6 6 6 7 6 5 6 6 5 6 6 5 6 5 6 6 6 7 8 8 8 6
10 11 9 4 5 6 7 8 6 9 7 6 6 5 6 7 8 9 9 7 6 7 10 12 9 6 4 5 6 5 4 2 7 10 12 12 10 8 7 8 8 8 9 6 6 6 7 9 7 5 5 6 7 7 7 7 7 7 6 6 6 6 6 6 6 5 5 7 8 7 6 7 6 6 7 7 5 5 6 6 7 7 7 8 8 7 8
8 9 5 5 4 4 3 4 5 6 6 6 6 7 8 7 6 9 8 6 10 12 8 5 5 5 5 5 6 6 7 11 12 10 9 8 7 6 5 5 6 6 8 10 9 10 10 8 7 6 5 6 7 7 7 8 7 7 6 7 7 6 6 6 6 6 7 7 5 5 5 6 7 5 6 6 5 6 6 7 6 6 6 8 8 6 7
6 9 9 9 8 8 7 8 7 6 6 7 8 7 6 8 8 7 9 10 8 6 6 6 4 3 5 6 8 10 12 12 11 10 9 7 4 3 5 5 6 7 8 12 11 11 9 8 11 11 8 7 7 7 8 7 7 7 6 6 6 6 7 6 6 5 6 6 5 6 6 6 5 7 6 6 5 5 6 6 6 6 7 7 7 7 7
6 10 9 8 6 5 7 8 7 6 7 8 8 8 10 9 9 9 6 7 7 7 6 4 4 7 11 11 9 8 8 9 9 9 9 4 3 4 5 5 5 7 5 9 7 6 9 10 12 14 10 7 8 8 8 9 8 7 5 7 6 6 6 6 6 6 6 5 6 6 7 6 5 6 7 5 6 6 6 6 7 7 6 7 6 6 8
6 8 9 9 7 7 9 8 4 5 6 8 9 10 10 9 6 5 6 7 8 7 5 6 9 9 6 4 5 9 11 9 10 10 7 5 5 5 5 6 8 6 7 12 3 4 5 6 9 8 7 7 7 8 8 12 10 7 7 7 6 6 7 6 6 7 7 6 7 6 6 6 6 6 6 5 6 6 7 7 7 6 6 6 6 6 7
5 4 5 7 5 7 8 6 3 4 7 12 11 8 7 7 7 5 7 9 7 4 4 7 5 6 8 7 10 10 11 11 9 7 7 7 5 7 11 12 11 12 10 2 4 5 5 4 6 6 6 8 7 7 6 10 11 8 7 6 6 6 6 7 7 7 7 6 5 6 5 6 6 6 6 6 6 6 7 8 7 7 6 6 6 6 6
6 6 6 4 6 7 5 7 6 7 6 6 7 12 8 4 5 5 7 8 7 4 6 5 5 8 9 10 11 12 13 8 6 8 11 7 5 7 9 11 13 10 9 8 5 4 6 7 6 5 6 6 6 6 6 8 9 7 7 6 6 7 6 7 5 5 6 5 6 6 6 7 6 7 7 7 6 7 6 6 6 6 6 6 6 6 7
7 4 3 4 6 3 5 6 8 6 5 6 8 10 6 6 5 5 9 10 6 4 6 6 7 10 11 11 12 12 8 4 5 9 7 4 5 7 8 12 4 5 10 10 9 8 8 8 7 6 6 6 6 6 5 8 8 6 6 6 6 6 6 6 7 7 7 6 7 6 7 6 6 6 7 6 6 6 6 6 6 6 6 6 7 6 6
6 3 3 4 6 6 6 6 5 7 7 6 8 6 6 5 6 10 9 5 5 4 5 7 10 12 10 7 7 7 8 6 5 5 8 11 11 8 7 12 5 4 7 10 10 8 8 8 8 7 7 6 6 9 8 7 7 6 6 6 7 6 6 6 7 7 7 6 6 6 6 6 6 6 6 6 6 6 6 6 6 6 6 6 6 6 6
5 6 7 5 5 6 5 5 6 8 9 7 5 5 6 5 6 7 7 7 6 6 7 7 8 9 10 9 8 9 10 6 6 7 7 9 9 7 10 5 1 1 6 6 5 6 6 7 7 7 8 8 7 9 10 7 6 6 6 6 7 7 7 7 6 6 5 5 6 6 6 6 6 7 7 7 7 6 5 6 6 7 6 6 6 6 6
6 4 4 5 6 5 4 4 5 5 7 9 2 3 4 4 5 6 7 7 7 7 7 8 7 8 8 7 7 9 9 7 6 5 5 8 7 11 12 11 9 5 6 6 5 6 6 6 6 8 10 11 10 10 7 6 6 6 6 6 7 6 7 6 6 6 7 7 7 7 7 7 6 7 6 7 7 6 6 6 6 6 6 6 6 6 6
5 5 5 6 7 4 4 5 5 8 7 4 5 5 6 7 7 6 7 7 9 8 6 7 8 8 7 7 9 10 9 6 5 5 5 8 8 9 4 12 12 9 9 8 5 5 5 6 7 9 8 10 10 10 7 6 6 6 6 7 6 6 6 7 7 7 7 7 7 7 7 6 7 6 6 7 7 6 6 6 6 6 6 6 6 6 6
7 6 5 4 5 7 6 4 4 2 4 6 8 7 7 7 7 6 5 7 8 8 8 7 7 8 7 7 7 8 7 8 7 7 9 9 8 5 1 5 5 6 9 10 7 7 7 8 9 9 9 9 10 8 6 6 6 6 6 6 6 7 7 7 7 7 7 7 6 6 6 6 6 6 6 6 6 6 6 7 7 6 6 6 6 6 6
4 4 4 7 6 6 4 2 1 1 3 5 8 9 2 1 2 3 5 7 7 8 6 6 7 8 6 7 7 7 7 7 7 8 9 9 8 8 5 4 4 5 6 6 7 7 6 6 8 10 10 10 10 6 6 6 6 6 6 6 6 6 7 7 7 7 6 6 7 7 6 7 6 6 7 6 6 6 6 6 6 6 6 7 5 7 7
4 6 6 6 8 6 1 1 2 5 5 9 8 8 7 4 4 5 5 5 7 7 6 6 7 6 6 7 7 7 7 5 8 8 5 8 7 6 5 5 5 5 6 6 7 6 7 8 8 9 10 10 8 6 6 6 6 6 6 7 7 7 7 6 6 6 6 6 6 4 5 6 6 5 6 6 6 6 6 6 6 6 6 5 6 6 5
6 7 6 4 3 4 4 4 4 5 7 6 4 7 5 5 6 5 6 6 8 6 7 7 6 7 6 7 6 7 6 5 9 9 0 1 2 3 4 4 6 7 6 5 5 4 6 8 7 8 8 8 6 6 6 6 6 6 6 7 7 7 6 7 6 5 5 6 6 6 6 6 6 5 6 6 6 5 7 6 6 6 6 6 6 7 6
3 1 3 4 4 4 4 5 5 7 6 4 6 5 3 4 7 7 2 4 6 6 7 7 6 5 6 5 5 5 5 6 7 9 9 5 2 2 2 2 3 5 6 5 3 5 5 8 8 8 7 5 5 6 5 6 6 7 7 6 6 6 6 6 5 6 6 6 5 6 6 6 6 6 7 5 6 6 6 6 5 7 8 7 7 6 5
2 3 5 4 4 5 4 6 7 6 5 6 5 5 3 3 6 7 6 6 5 6 7 7 6 5 5 5 5 5 5 5 6 7 7 6 6 6 5 3 3 4 5 5 4 5 3 3 4 5 6 6 6 6 6 6 6 6 6 6 6 6 5 6 6 5 6 6 5 6 6 5 5 5 5 5 6 6 6 7 6 6 6 6 6 6 5
5 4 5 3 4 4 5 6 6 5 5 5 4 4 4 4 5 6 6 5 4 5 5 7 10 2 1 3 4 4 3 4 5 4 5 6 5 5 5 5 5 5 5 5 5 4 4 4 4 5 5 5 5 5 6 7 6 6 6 5 5 5 5 5 5 5 5 6 6 6 6 5 5 6 6 6 5 6 6 5 6 6 6 6 6 6 6
Wind_Direction
307 200 253 311 341 162 219 221 180 188 188 165 186 227 211 152 182 221 241 162 191 255 219 210 211 199 204 209 215 214 212 226 224 204 221 225 228 223 216 225 220 217 210 200 193 193 193 169 182 198 198 218 235 277 285 290 17 322 358 345 332 336 339 330 331 337 329 329 330 335 337 334 334 331 331 329 330 329 327 327 330 328 325 329 327 327 328
340 344 342 346 85 344 300 237 227 210 171 211 213 239 215 195 235 156 173 185 231 239 245 212 224 211 207 221 195 93 206 231 238 230 233 231 233 225 224 229 225 218 213 196 197 195 195 194 189 192 190 197 213 247 281 272 355 310 23 324 329 330 328 322 328 330 326 328 328 339 331 336 331 329 329 327 324 325 326 326 326 322 324 328 326 326 329
295 314 338 47 36 58 287 270 244 227 221 253 237 260 226 124 298 251 185 251 280 248 209 230 227 176 195 296 247 229 232 241 238 231 233 234 235 234 234 238 231 214 207 202 195 201 202 198 200 193 187 190 198 236 248 194 313 324 6 310 335 320 317 319 325 324 327 328 334 331 333 333 326 329 327 324 323 322 323 326 325 324 328 325 325 328 326
298 4 18 321 9 5 239 279 261 223 185 224 207 205 201 169 214 107 165 267 257 267 181 187 168 171 182 214 225 232 239 225 218 219 230 232 235 236 237 236 223 210 206 203 203 206 204 200 192 180 173 179 195 222 221 196 278 345 313 306 318 309 311 320 322 323 327 330 330 331 332 325 328 324 321 321 323 322 324 324 325 328 322 317 322 321 322
265 262 55 346 341 334 300 252 229 209 210 203 9 269 209 211 142 144 162 233 227 185 165 150 209 186 206 224 226 232 244 231 208 216 222 228 233 236 237 233 223 217 211 208 208 206 200 197 187 184 164 169 194 211 180 254 200 299 296 307 299 303 310 320 317 325 329 327 327 327 324 325 321 320 322 323 319 323 325 322 325 320 319 323 318 316 317
250 292 323 284 47 291 238 231 236 180 193 199 205 221 207 208 171 204 206 226 176 120 159 174 190 196 212 206 224 203 201 209 216 227 230 234 236 244 243 233 228 226 209 209 207 204 197 186 176 162 161 165 186 170 167 226 220 273 298 293 298 304 309 308 314 327 322 324 324 319 323 325 321 320 320 318 317 321 319 321 319 318 318 317 316 318 315
227 353 346 14 244 242 237 232 216 214 306 216 218 240 190 204 222 256 270 251 200 198 186 188 192 198 227 240 221 231 226 208 207 212 223 230 232 233 236 239 231 220 211 205 190 186 181 168 152 143 160 162 176 161 191 185 252 252 273 286 296 297 301 306 318 319 319 321 319 319 319 322 320 316 317 316 320 321 322 318 319 317 319 319 315 315 315
79 70 74 114 244 233 257 265 326 149 90 122 78 283 254 225 212 214 231 229 206 201 212 233 220 204 253 288 242 234 238 210 209 209 219 225 213 220 223 222 229 215 205 201 198 193 151 145 149 154 162 158 160 178 167 167 233 268 264 261 282 290 288 295 307 308 317 312 314 315 318 318 319 317 316 318 319 320 319 314 311 310 309 309 311 312 311
188 199 163 235 305 317 17 102 224 172 165 166 163 236 279 211 204 195 218 231 208 195 218 206 212 278 294 272 268 219 218 212 210 204 218 203 207 212 230 204 230 221 208 199 173 142 156 164 160 157 159 148 153 162 159 207 203 242 261 262 261 270 277 287 291 301 309 311 309 311 315 314 313 312 318 319 318 319 318 313 313 311 310 313 310 310 308
125 132 338 341 3 293 278 241 286 210 199 165 193 94 285 255 202 192 197 217 207 189 153 164 188 125 55 306 286 264 233 207 204 230 239 233 218 218 225 219 145 114 126 115 135 150 156 166 167 150 154 153 158 171 193 196 209 238 237 244 248 258 264 275 282 294 300 302 301 306 306 305 308 310 311 309 310 316 314 310 311 310 311 309 306 304 305
66 75 161 221 184 245 213 236 209 228 215 162 126 55 291 264 198 190 185 204 191 173 164 176 150 94 204 252 247 237 237 214 203 206 227 220 227 221 208 195 189 171 152 144 142 140 152 169 170 153 153 154 159 196 200 209 219 241 248 251 236 240 252 261 273 286 287 291 295 296 301 302 306 308 311 311 311 308 301 304 303 303 303 301 302 303 300
200 128 134 247 202 237 299 228 244 218 107 141 67 7 281 264 178 174 173 193 182 176 166 152 164 163 202 244 258 197 201 198 193 190 206 212 218 225 204 222 179 163 143 122 135 162 179 188 163 160 154 157 183 200 215 200 228 244 245 238 242 240 247 256 256 268 275 282 290 295 298 301 301 300 305 306 302 306 307 304 301 303 300 298 298 298 304
191 185 267 326 293 269 238 202 213 137 168 76 97 203 236 218 153 174 177 188 180 155 156 165 176 225 198 192 188 141 126 114 211 231 235 211 194 201 190 192 152 156 176 174 184 189 191 175 165 163 155 162 202 211 205 213 241 243 237 228 232 235 247 253 255 256 260 266 278 284 288 291 296 298 296 297 304 305 305 305 303 300 298 299 299 298 301
175 187 182 242 261 241 172 257 141 181 110 178 202 235 207 143 159 188 181 184 174 165 169 187 215 223 222 139 84 144 193 188 201 208 207 159 74 44 162 186 160 174 179 202 196 205 194 170 171 164 165 183 212 208 211 236 245 233 207 219 222 231 240 246 254 259 262 260 267 274 283 286 292 290 291 295 293 299 301 302 301 299 299 299 297 297 300
65 44 45 348 300 299 123 121 82 15 139 233 205 153 309 213 158 163 199 190 189 168 195 212 214 237 252 197 214 213 210 219 231 219 189 201 214 207 185 219 206 171 188 208 214 207 191 185 175 176 167 196 213 208 222 243 233 196 210 211 219 225 237 244 251 259 261 264 268 274 278 282 285 283 292 295 294 296 298 297 296 296 299 302 303 302 304
150 153 163 205 214 182 181 150 178 201 204 181 170 140 158 237 169 178 177 218 193 192 187 201 229 235 240 278 257 252 250 242 260 247 232 243 244 235 229 223 196 186 210 217 220 205 191 189 187 181 179 202 211 213 238 238 205 207 206 218 214 227 235 242 253 256 258 264 265 270 272 280 279 282 288 291 292 292 293 294 294 299 300 303 303 304 307
156 192 213 236 227 192 203 208 62 287 218 108 179 222 170 168 226 200 161 207 202 192 200 206 202 219 221 228 218 201 227 219 221 221 223 214 214 215 211 219 204 195 208 218 218 213 200 196 199 196 194 199 211 225 242 179 203 198 209 205 212 234 240 245 249 252 264 264 267 267 267 265 276 278 285 291 297 295 293 293 292 292 295 301 300 300 304
278 260 220 190 348 244 245 252 215 27 4 336 151 158 164 224 187 171 186 205 199 199 196 192 232 215 221 217 237 228 238 226 230 227 248 245 231 233 236 231 204 208 217 228 219 230 223 202 205 202 204 194 207 231 181 175 185 185 193 205 228 241 244 249 248 253 266 269 259 257 262 253 248 257 269 282 284 289 290 285 286 288 291 297 295 298 295
49 268 2 192 231 195 228 234 247 226 204 225 182 220 228 244 184 210 246 202 195 197 179 196 214 225 217 222 235 225 236 235 234 219 222 230 214 208 214 226 189 193 197 218 228 228 237 212 203 208 207 212 222 228 202 187 180 182 196 213 236 249 253 255 254 245 253 266 277 266 255 258 250 257 258 262 269 277 278 279 281 281 284 290 295 293 292
191 241 226 235 260 247 258 233 238 247 240 228 210 219 228 195 212 205 235 190 235 144 190 209 210 232 216 209 235 233 227 233 231 228 225 232 233 230 223 213 185 195 197 215 226 225 235 227 200 205 207 217 222 222 222 199 185 181 206 216 232 248 248 245 252 243 249 266 272 284 274 265 274 275 257 244 256 265 270 272 282 285 286 286 285 289 288
270 310 269 243 270 272 243 230 238 240 247 237 231 218 234 239 250 252 256 207 211 182 218 193 205 228 239 212 222 227 237 233 236 231 228 224 226 227 209 217 187 201 208 217 226 225 236 226 196 204 213 221 215 211 217 200 176 185 216 229 235 249 252 257 260 249 249 254 256 265 276 272 256 244 265 266 259 269 253 230 233 248 267 266 265 263 256
267 232 245 127 173 276 297 236 227 231 231 222 236 205 227 230 233 234 236 246 225 219 235 198 194 215 240 228 205 231 232 230 230 233 232 228 224 233 228 194 198 218 222 221 227 229 239 219 202 208 217 220 212 208 200 188 171 195 218 230 239 248 241 242 250 248 251 253 251 254 260 277 289 289 254 256 259 260 278 274 268 272 274 276 280 268 254
247 237 207 193 195 253 237 222 238 224 223 189 216 228 232 234 225 219 212 236 250 242 241 208 204 224 230 242 201 229 239 237 228 227 223 220 224 231 205 191 219 217 226 226 234 240 238 213 210 214 220 216 210 202 192 185 179 202 201 219 236 245 239 243 239 240 239 249 246 244 252 261 276 288 308 290 270 272 273 278 285 287 291 295 303 312 319
256 128 201 178 165 210 267 266 249 253 216 174 210 231 230 234 230 209 209 220 222 239 238 228 211 224 234 236 190 228 243 243 235 233 228 226 226 221 187 203 215 215 227 224 223 231 231 214 216 214 223 224 212 204 187 186 185 194 196 203 229 239 228 238 240 242 238 242 256 255 259 249 256 280 289 307 308 274 271 283 290 294 299 308 315 320 325
239 194 169 183 202 244 252 265 273 251 230 185 197 226 228 232 238 189 205 227 227 226 236 235 226 212 223 238 208 226 232 240 220 227 224 217 222 214 217 211 222 219 224 220 225 228 226 218 218 218 223 232 210 201 191 184 179 193 201 206 226 241 233 238 235 238 241 236 246 238 256 264 267 255 271 288 298 312 305 288 289 292 297 302 311 321 325
234 180 138 140 19 255 272 325 283 250 233 204 228 268 257 222 218 181 215 216 227 218 227 241 244 229 202 224 225 229 239 246 238 205 213 223 227 226 227 223 225 221 227 224 222 221 219 218 218 219 229 233 210 201 187 184 185 197 204 209 219 224 229 228 228 236 232 237 239 245 238 244 246 256 254 251 268 276 304 319 322 304 280 289 305 315 315
309 138 132 311 286 267 198 205 240 251 227 191 205 230 213 3 224 210 240 242 239 219 220 231 237 230 200 227 232 225 217 250 223 224 223 230 227 226 227 224 218 217 218 221 227 223 219 217 218 223 235 235 206 190 186 183 187 201 209 212 218 229 230 226 216 231 231 228 230 240 238 238 245 250 259 260 256 269 280 291 301 305 312 309 304 302 312
255 234 179 201 235 221 249 252 275 308 170 182 209 237 252 141 312 275 275 268 259 243 242 237 226 219 232 229 198 243 237 239 238 235 223 233 235 234 228 218 214 210 214 220 228 222 216 219 223 231 243 232 190 188 188 183 188 202 206 210 216 222 229 230 230 225 227 225 225 228 233 242 235 243 245 247 253 262 267 273 278 293 294 289 293 306 307
246 220 225 229 253 155 107 9 312 285 269 211 95 95 119 233 264 258 260 250 253 271 260 240 208 222 230 236 190 226 229 232 236 239 236 238 234 222 215 211 211 209 212 227 233 223 218 221 227 235 248 220 188 189 185 182 193 201 206 209 212 220 227 226 224 229 230 230 229 228 240 238 237 243 246 248 254 257 263 268 278 274 272 293 312 311 307
244 221 204 233 243 251 293 271 253 247 243 223 210 246 211 205 256 256 250 258 237 241 248 250 205 230 215 236 227 220 225 231 234 241 245 241 228 210 197 174 142 200 247 250 235 221 217 223 226 233 244 205 189 186 181 184 201 202 208 208 209 215 221 214 213 218 226 232 231 237 237 241 234 232 249 253 255 255 260 271 268 274 290 297 298 295 303
18 19 221 242 229 226 218 246 259 259 249 228 198 244 255 194 238 262 261 255 238 243 252 237 240 248 223 225 232 226 235 249 252 250 250 243 225 205 181 167 182 221 222 229 225 210 217 224 228 235 236 189 186 181 178 190 199 201 210 215 219 223 223 219 211 210 216 226 233 228 238 236 237 233 245 252 258 258 259 261 269 279 276 281 285 285 284
86 39 61 149 222 231 255 259 261 259 249 199 179 234 229 209 227 239 251 251 243 238 251 246 239 240 239 234 229 231 234 242 250 255 257 253 239 215 200 202 218 233 238 230 208 201 211 220 231 237 206 189 189 179 180 188 187 192 209 208 210 218 221 224 223 222 206 216 222 225 229 227 233 223 242 248 252 257 264 265 272 274 274 280 283 281 286
204 305 300 249 229 269 260 251 227 253 239 215 222 233 238 221 234 245 248 249 266 244 233 245 244 243 243 222 215 223 231 240 259 265 260 253 243 227 213 216 223 231 239 234 221 209 207 218 233 211 187 194 189 188 187 190 189 202 207 201 209 207 203 219 219 221 229 227 225 226 225 226 232 229 235 243 247 248 248 255 264 270 274 272 271 279 284
202 219 220 189 176 203 229 251 216 237 251 239 239 238 237 235 229 240 249 251 250 258 244 243 249 243 216 212 217 217 196 213 258 248 239 241 243 232 216 217 225 231 243 250 246 236 231 231 233 216 196 186 192 190 192 190 196 203 205 196 202 205 214 217 215 214 219 228 230 231 227 228 229 230 236 240 243 240 248 255 257 261 272 275 275 280 283
236 255 269 256 233 241 215 223 211 212 225 252 254 237 235 239 230 236 241 239 237 239 249 255 249 230 210 210 211 209 199 219 234 240 244 231 234 221 203 209 229 244 257 252 238 240 232 232 227 222 206 203 196 197 194 199 193 201 201 200 200 207 210 205 205 214 219 229 217 219 227 228 237 236 237 239 238 241 248 252 256 261 266 274 282 284 287
217 248 258 259 255 245 244 246 242 234 227 237 249 255 248 232 227 236 235 234 242 250 252 246 231 201 210 216 223 219 221 229 238 245 250 245 223 166 165 195 209 231 249 271 249 233 231 228 226 215 209 209 209 212 204 199 199 199 199 191 202 209 207 209 215 218 225 222 225 224 225 229 233 234 234 233 242 243 245 254 258 259 261 267 274 285 285
212 225 241 249 251 239 244 245 240 237 236 243 254 259 259 254 239 243 244 253 249 239 237 222 206 218 232 228 229 238 234 233 234 236 242 232 164 166 188 202 205 222 232 263 265 173 207 218 220 211 210 210 214 214 206 190 197 197 189 194 200 202 206 213 213 214 225 218 222 228 232 235 241 246 242 239 245 247 243 252 257 260 261 264 271 275 282
228 221 236 239 246 244 244 246 238 226 241 263 254 244 248 262 264 252 247 247 246 240 221 211 224 235 246 252 234 237 241 235 233 237 239 217 182 187 214 205 225 193 223 234 223 194 199 202 200 195 198 209 215 215 200 194 188 178 192 196 199 200 204 209 212 217 220 221 219 221 226 228 238 248 246 238 241 244 250 251 253 259 263 266 266 267 270
262 251 250 251 260 255 259 265 235 231 219 234 255 264 255 246 259 259 259 254 251 220 208 230 232 244 244 241 248 247 244 238 232 230 231 221 194 193 224 221 224 210 220 174 156 202 192 182 175 179 192 206 207 207 195 192 186 183 192 192 193 199 204 205 210 217 219 214 209 221 224 232 233 241 251 248 242 245 245 246 252 255 259 264 269 271 274
246 232 236 230 241 248 253 260 248 242 240 227 241 259 264 251 252 246 258 266 257 198 217 214 208 232 240 235 243 251 251 238 218 217 225 213 188 229 269 276 254 240 237 232 214 206 195 186 176 187 201 199 193 191 186 188 185 180 181 189 196 199 204 207 207 216 222 210 221 225 226 230 232 236 245 249 253 250 252 254 255 260 265 267 265 268 272
238 247 242 215 246 251 247 259 264 253 241 239 238 248 260 258 265 268 261 258 263 200 214 208 218 239 241 239 241 250 263 240 200 213 193 147 193 225 235 261 251 186 210 213 219 216 201 197 192 201 210 193 189 182 175 185 183 181 182 190 194 197 202 203 209 214 216 215 219 222 230 232 238 245 244 249 249 252 253 256 258 260 259 265 269 269 267
247 232 242 243 252 252 254 254 274 288 268 244 250 250 254 241 234 245 260 271 272 243 227 230 223 236 251 252 258 264 269 248 212 203 178 195 208 209 217 255 214 201 197 201 211 212 210 211 212 216 212 198 195 193 184 177 184 186 189 192 198 200 204 206 213 220 218 216 223 229 231 229 233 243 246 246 251 253 252 255 258 259 257 256 261 262 266
234 228 239 242 252 254 255 255 253 258 279 279 259 259 253 244 238 256 265 266 261 262 251 250 247 249 254 259 263 265 262 246 222 221 227 242 237 231 227 254 84 251 188 186 185 199 204 212 209 220 212 204 201 194 189 190 188 192 198 200 203 205 210 213 218 220 213 218 228 229 229 231 230 238 245 247 249 251 251 252 256 260 261 260 262 264 263
241 234 238 247 259 256 255 261 265 278 279 282 265 249 259 251 235 242 253 258 262 251 249 257 251 248 247 243 244 253 259 245 241 219 219 264 272 250 232 249 248 211 188 194 190 200 208 206 209 212 211 206 202 189 191 195 195 197 202 204 208 209 213 218 222 219 220 224 226 230 228 228 229 235 235 247 252 253 247 249 251 254 260 261 260 260 263
253 246 248 243 254 276 268 249 253 259 269 299 313 294 273 263 258 237 241 254 257 261 251 251 254 252 247 233 233 240 246 241 220 174 195 245 262 276 200 207 224 229 217 205 204 207 215 210 211 205 203 202 198 189 189 190 197 198 203 204 210 211 215 219 222 222 223 226 228 230 227 229 231 233 236 242 243 250 253 252 254 253 258 263 263 264 263
269 265 251 253 261 252 244 246 266 319 313 314 301 282 256 251 249 246 230 239 252 254 248 247 247 250 246 248 251 252 255 254 243 220 224 222 228 249 141 177 199 212 211 207 219 222 225 212 202 204 202 197 190 187 193 193 193 199 200 207 210 212 217 222 222 226 223 224 227 225 227 233 231 236 233 238 242 247 254 251 257 257 251 254 258 257 261
252 271 252 234 256 263 289 304 332 308 314 317 294 295 280 217 230 237 248 242 245 260 265 259 256 255 247 240 242 255 265 267 264 230 234 242 256 263 220 190 185 197 191 199 212 218 224 214 210 205 201 196 187 190 193 194 197 201 205 212 212 216 219 221 222 226 225 228 227 229 233 230 232 236 238 240 242 244 248 251 257 258 257 257 259 261 264
251 255 266 251 258 276 320 271 322 292 275 262 268 285 294 302 288 275 270 272 268 268 269 264 258 258 255 253 248 240 237 235 280 284 178 217 225 233 244 233 218 195 198 211 217 227 219 216 211 208 207 198 196 203 200 202 204 207 212 215 217 219 219 222 224 223 226 225 228 229 236 239 239 238 236 238 244 242 243 244 253 259 259 253 255 257 257
233 246 268 286 280 285 285 282 279 277 267 264 264 272 286 304 297 288 282 278 276 278 272 267 263 264 261 251 246 247 238 224 212 248 328 124 197 218 236 238 234 215 209 216 220 226 212 214 212 209 204 201 204 208 206 205 206 209 212 216 219 218 219 220 225 215 215 225 223 225 231 234 236 229 238 237 241 243 242 244 244 245 252 255 258 258 254
267 283 292 279 268 269 260 264 264 252 267 276 269 273 304 345 319 294 284 289 290 290 290 287 278 268 260 259 242 241 239 234 250 265 274 267 245 235 227 222 227 225 221 226 230 232 208 206 208 205 196 198 201 203 203 205 207 210 216 218 219 224 220 220 224 216 217 222 226 226 232 234 234 233 233 238 241 243 240 241 246 247 247 250 253 255 252
247 242 260 256 249 254 240 235 257 281 289 278 276 288 298 286 267 282 299 296 303 307 298 298 287 269 266 259 254 248 235 240 248 253 256 267 266 257 236 220 216 218 221 226 228 230 219 206 206 202 203 207 207 206 205 208 211 216 217 221 221 222 221 217 215 223 222 220 223 228 232 234 232 235 237 239 242 246 242 245 244 247 244 249 248 252 254
242 256 271 286 277 274 272 273 270 264 255 263 264 271 266 255 271 288 288 262 255 268 280 304 309 293 198 270 279 267 246 238 243 247 254 256 259 258 253 231 224 223 219 224 228 225 218 212 211 211 212 212 214 217 220 216 218 222 222 221 221 221 218 219 216 222 226 223 223 231 234 233 224 234 240 238 238 240 245 242 245 247 249 248 248 248 253